Powrót do katalogu

MIDAS 4 DEB

LostPO
NORAD 45468·DEBRIS·🇺🇸 United States

Wystrzelony Oct 21, 1961 z Vandenberg Space Force Base

Loading…

Następne Przeloty (najbliższe 24 godziny)

TLE

NieaktualneSource: Space-Track

Epoka: Jun 27, 2026, 13:39 UTC

1 45468U 61028N   26178.56922226  .00000010  00000-0  58733-2 0  9991
2 45468  95.8467 236.0685 0321065 218.8621 138.8740  8.68915111305327

Śledź MIDAS 4 DEB w czasie rzeczywistym z AllMySat

Download on the App Store